Regional Weather Roundup
Issued by NWS

Home | Current Version | Previous Version | Text Only | Print | Product List | Glossary Off
Versions: 1 2 3 4 5 6 7 8 9 10 11 12 13 14 15 16 17 18 19 20 21 22 23 24 25 26 27 28 29 30 31 32 33 34 35 36 37 38 39 40 41 42 43 44 45 46 47 48 49 50

000
ASUS43 KLOT 241506
RWRIL

ILLINOIS REGIONAL WEATHER ROUNDUP
NATIONAL WEATHER SERVICE CHICAGO/ROMEOVILLE IL
900 AM CST MON NOV 24 2014

NOTE: "FAIR" INDICATES FEW OR NO CLOUDS BELOW 12,000 FEET WITH NO
SIGNIFICANT WEATHER AND/OR OBSTRUCTIONS TO VISIBILITY.

* THESE STATIONS ARE NOT UNDER NWS QUALITY CONTROL. THEY ALSO MAY NOT
  REPORT WEATHER SUCH AS PRECIPITATION OR FOG.

ILZ001-002-007-009-015-016-024-241600-
NORTHWEST ILLINOIS

CITY           SKY/WX    TMP DP  RH WIND       PRES   REMARKS
MOLINE         LGT SNOW  30  26  85 W24G39    29.37R FOG     WCI  16
STERLING*      CLOUDY   N/A N/A N/A W24G31    29.29R
SAVANNA*       LGT SNOW  32  30  93 W15G23    29.29R VSB 3/4 WCI  21
$$

ILZ003-004-008-010-011-017-018-241600-
NORTH CENTRAL ILLINOIS

CITY           SKY/WX    TMP DP  RH WIND       PRES   REMARKS
ROCKFORD       LGTSLEET  36  33  89 W17G29    29.22R FOG     WCI  26
FREEPORT*      LGT SNOW  32  32  99 W17G24    29.23R WCI  21
ROCHELLE*      LGT SNOW  32  32  99 W20G26    29.23R WCI  20
DE KALB*       CLOUDY    34  33  95 W28G33    29.19R WCI  21
PERU*          SNOW      33  32  96 W25G37    29.30R VSB 1/2 WCI  19
$$

ILZ005-006-012>014-019>023-241600-
NORTHEAST ILLINOIS

CITY           SKY/WX    TMP DP  RH WIND       PRES   REMARKS
CHICAGO-OHARE  LGT RAIN  41  39  93 W18G26    29.14R FOG
CHICAGO-MIDWAY LGT RAIN  42  40  92 SW18      29.15R
AURORA         LGT RAIN  37  33  85 W24G32    29.19R FOG     WCI  26
LANSING*       RAIN      39  37  94 W20G28    29.16R WCI  29
JOLIET*        RAIN      35  33  92 W17G25    29.23R WCI  24
WAUKEGAN       LGT RAIN  44  43  96 SW9G21    29.09R FOG
DUPAGE AIRPORT RAIN      38  35  89 W20G26    29.16R FOG     WCI  28
KANKAKEE*      LGT RAIN  36  34  92 W29G36    29.27R WCI  23
WHEELING       LGT RAIN  43  40  89 W14G23    29.15R FOG
MORRIS*        LGT SNOW  34  34  99 W23G31    29.23R WCI  22
ROMEOVILLE*    LGT RAIN  37  37 100 W20G29    29.21R WCI  26
NORTHERLY ISL    N/A     44  41  89 W17         N/A
$$

LMZ740>746-241600-
SOUTHERN LAKE MICHIGAN

STATION/POSITION SKY/WX   TEMP    WIND        PRES    VSBY  WAVE
                          AIR SEA DIR/SP/G                  HT/PER
                          (F)     (DEG/KT/KT) (MB)    (MI)  (FT/S)
SOUTHERN BUOY              44 42  230/  8/ 10  984.3S         1/ 3
WAUKEGAN HARBOR            46     260/ 11/ 14   N/A
HARRISON CRIB              44     250/ 26/ 32   N/A
BURNHAM HARBOR             43     270/ 13/ 17   N/A
CALUMET HARBOR             42     240/ 14/ 22  986.1R
MICHIGAN CITY              44                   N/A
$$

ILZ025>027-034>036-040-047-049-050-058-095>099-241600-
WEST-CENTRAL ILLINOIS

CITY           SKY/WX    TMP DP  RH WIND       PRES   REMARKS
QUINCY         CLOUDY    32  25  75 W21G35    29.54R WCI  20
GALESBURG*     CLOUDY    31  29  94 W29       29.41R WCI  16
MACOMB*        CLOUDY    32  29  90 W28G36    29.48R WCI  18
JACKSONVILLE*  CLOUDY    36  30  78 W21G33    29.52R WCI  25
PITTSFIELD*    CLOUDY    35  29  79 W24G32    29.55R WCI  23
$$

ILZ028>032-037-038-041>044-048-051>054-059>061-241600-
CENTRAL ILLINOIS

CITY           SKY/WX    TMP DP  RH WIND       PRES   REMARKS
PONTIAC        LGT SNOW  33  32  96 W30G38    29.32R VSB 3/4 WCI  19
BLOOMINGTON    LGT SNOW  33  32  96 W20G29    29.38R FOG     WCI  21
DECATUR        CLOUDY    36  32  85 W23G39    29.47R WCI  24
PEORIA         MIX PCPN  34  29  82 W23G32    29.42R WCI  22
LACON*         LGT SNOW  32  30  92 W16G31    29.35R WCI  21
LINCOLN*       CLOUDY    35  33  92 W13G26    29.45R WCI  26
SPRINGFIELD    CLOUDY    35  34  96 W25G32    29.49R WCI  23
TAYLORVILLE    CLOUDY    34  30  86 W23G37    29.52R WCI  22
$$

ILZ033-039-045-046-055>057-062-063-241600-
EAST-CENTRAL ILLINOIS

CITY           SKY/WX    TMP DP  RH WIND       PRES   REMARKS
CHAMPAIGN      CLOUDY    36  34  92 W29G45    29.42R WCI  23
DANVILLE*      CLOUDY    35  32  88 W25G38    29.36R WCI  23
RANTOUL*       CLOUDY    37  34  89 W23G39    29.39R WCI  25
MATTOON        CLOUDY    37  31  78 W17G31    29.49R WCI  27
PARIS*         CLOUDY    37  34  89 W25G35    29.48R WCI  25
$$

ILZ079-100>102-241600-
SOUTHWEST ILLINOIS

CITY           SKY/WX    TMP DP  RH WIND       PRES   REMARKS
ALTON          CLOUDY    37  30  75 W17G29    29.60R WCI  28
BELLEVILLE     CLOUDY    40  33  77 W22G35    29.60R
CAHOKIA*       CLOUDY    39  29  67 W16G31    29.63R WCI  30
SPARTA*        PTSUNNY   40  30  69 W22G32    29.64R
$$

ILZ064>066-069>071-074>076-080>082-084>086-088>090-092>094-241600-
SOUTH-CENTRAL ILLINOIS

CITY           SKY/WX    TMP DP  RH WIND       PRES   REMARKS
CARBONDALE     CLOUDY    43  35  73 W15G22    29.65R
CAIRO*         CLOUDY    47  36  65 SW14      29.71R
EFFINGHAM*     CLOUDY    39  32  76 W22G29    29.55R WCI  28
MARION         CLOUDY    45  36  70 SW12G18   29.66R
MT. VERNON     CLOUDY    41  34  75 SW18G25   29.60R
CENTRALIA*     CLOUDY    40  35  81 SW23G29   29.58R
SALEM*           N/A     42  37  82 SW20G29   29.58R
METROPOLIS*    CLOUDY    45  37  71 W13       29.70R
$$

ILZ067-068-072-073-078-083-087-091-241600-
SOUTHEAST ILLINOIS

CITY           SKY/WX    TMP DP  RH WIND       PRES   REMARKS
LAWRENCEVILLE  CLOUDY    41  35  79 W21       29.56R
FLORA*         SUNNY     40  35  83 W16       29.58R
FAIRFIELD*     CLOUDY    41  36  81 SW13      29.60R
HARRISBURG*    CLOUDY    43  36  77 W15G24    29.66R
ROBINSON*      CLOUDY    39  35  87 W21G35    29.55R FOG     WCI  29
CARMI*         CLOUDY    44  39  82 SW15      29.63R
$$

ABBREVIATIONS USED IN REMARKS
   TC - TEMPERATURE IN CELSIUS
  WCI - WIND CHILL INDEX
   HX - HEAT INDEX
  VSB - VISIBILITY
$$



USA.gov is the U.S. government's official web portal to all federal, state and local government web resources and services.